Location: Muck Cross
(36.7179°N, 78.3678°W)
Time: 11:01:30
(UTC+00:00)

A-11 Canister half - Visible Passes

Search period start: 30 March 2023 00:00
Search period end: 09 April 2023 00:00
Orbit: 1526 x 1682 km, 47.3° (Epoch: 29 March)

Date Brightness Start Highest point End Pass type
(mag) Time Alt. Az. Time Alt. Az. Time Alt. Az.
30 Mar 9.1 01:19:15 10° WNW 01:29:06 67° NNE 01:33:26 37° E visible
30 Mar 9.7 03:24:48 10° WNW 03:31:44 42° W 03:31:44 42° W visible
31 Mar 9.2 00:57:29 10° WNW 01:07:21 65° NNE 01:13:00 28° E visible
31 Mar 9.4 03:03:01 10° WNW 03:11:18 50° WSW 03:11:18 50° WSW visible
01 Apr 9.3 00:35:43 10° WNW 00:45:35 63° NNE 00:52:35 21° E visible
01 Apr 9.2 02:41:15 10° WNW 02:50:38 54° SW 02:50:53 54° SW visible
02 Apr 9.3 00:13:57 10° WNW 00:23:49 61° NNE 00:32:13 14° E visible
02 Apr 9.2 02:19:27 10° WNW 02:28:57 57° SW 02:30:31 52° S visible
02 Apr 11.1 04:28:39 10° W 04:28:50 10° W 04:28:50 10° W visible
02 Apr 9.4 23:52:11 10° WNW 00:02:03 60° NNE 00:11:33 10° E visible
03 Apr 9.2 01:57:41 10° WNW 02:07:16 60° SW 02:10:12 45° S visible
03 Apr 10.9 04:06:18 10° W 04:08:30 13° WSW 04:08:30 13° WSW visible
04 Apr 9.2 01:35:55 10° WNW 01:45:36 63° SW 01:49:55 36° SSE visible
04 Apr 10.8 03:44:05 10° W 03:48:14 15° WSW 03:48:14 15° WSW visible
05 Apr 9.2 01:14:08 10° WNW 01:23:54 67° SW 01:29:41 27° SSE visible
05 Apr 10.6 03:21:56 10° W 03:27:30 17° WSW 03:28:00 17° SW visible
06 Apr 9.2 00:52:22 10° WNW 01:02:12 70° SW 01:09:30 19° SE visible
06 Apr 10.6 02:59:52 10° W 03:05:54 19° WSW 03:07:49 17° SW visible
07 Apr 9.2 00:30:37 10° WNW 00:40:30 73° SW 00:49:23 13° SE visible
07 Apr 10.6 02:37:49 10° W 02:44:16 20° SW 02:47:42 17° SSW visible
08 Apr 9.3 00:08:50 10° WNW 00:18:48 76° SW 00:28:24 10° SE visible
08 Apr 10.6 02:15:50 10° W 02:22:39 22° SW 02:27:38 14° SSW visible
